Location: Boullarre
(49.1305°N, 3.0047°E)
Time: 15:40:43
(UTC+00:00)

PSLV R/B - Pass Details

Date: 03 February 2023
Orbit: 491 x 557 km, 97.8° (Epoch: 25 March)

Event Time Altitude Azimuth Distance (km) Brightness Sun altitude
Rises 17:39:00 0° 139° (SE) 2,570 7.0 -8.7°
Reaches altitude 10° 17:41:13 10° 128° (SE) 1,699 6.0 -9.1°
Maximum altitude 17:44:24 29° 67° (ENE) 947 4.5 -9.6°
Drops below altitude 10° 17:47:40 10° 6° (N) 1,740 6.2 -10.1°
Sets 17:49:58 0° 356° (N) 2,644 7.2 -10.5°
